THY3PC LTFM-HECA

Flight info

Callsign THY3PC
Flight time N/A
Altitude 37000
Route RATVU1D/35L RATVU UT35 AYT UM855 TOMBI M855 RASDA A16 CVO HECA/05R
Aircraft B738/M-SDE2E3FGHIRWXY/LB1

Departure

Time N/A
Airport İstanbul Airport (LTFM)

Arrival

Time 2026-04-30 18:02
Airport Cairo International Airport (HECA)
Time Latitude Longitude Altitude Speed Heading
2026-04-30 17:39 31.46540 31.13405 24064 ft 388 kts 177°
2026-04-30 17:41 31.25577 31.17366 22023 ft 376 kts 176°
2026-04-30 17:42 31.20431 31.18328 21509 ft 373 kts 176°
2026-04-30 17:42 31.12785 31.19754 20747 ft 369 kts 176°
2026-04-30 17:43 31.07780 31.20687 20254 ft 364 kts 176°
2026-04-30 17:44 31.00341 31.22072 19255 ft 356 kts 176°
2026-04-30 17:44 30.93049 31.23425 18227 ft 351 kts 175°
2026-04-30 17:46 30.81175 31.25626 16432 ft 341 kts 175°
2026-04-30 17:47 30.71895 31.27341 15105 ft 335 kts 175°
2026-04-30 17:48 30.62761 31.29026 13771 ft 331 kts 175°
2026-04-30 17:48 30.56037 31.29255 12733 ft 317 kts 194°
2026-04-30 17:49 30.47445 31.27511 11993 ft 308 kts 194°
2026-04-30 17:50 30.39640 31.25935 11527 ft 276 kts 194°
2026-04-30 17:51 30.33898 31.24774 10129 ft 279 kts 194°
2026-04-30 17:52 30.28237 31.23581 8859 ft 272 kts 194°
2026-04-30 17:53 30.19486 31.21697 7263 ft 240 kts 194°
2026-04-30 17:54 30.13000 31.20206 5551 ft 236 kts 194°
2026-04-30 17:55 30.06644 31.18541 3912 ft 229 kts 194°
2026-04-30 17:56 30.01641 31.20293 2970 ft 206 kts 155°
2026-04-30 17:57 29.99541 31.23948 2708 ft 196 kts 83°
2026-04-30 17:58 30.00202 31.28484 2689 ft 188 kts 62°
2026-04-30 17:59 30.03272 31.33338 2527 ft 191 kts 46°
2026-04-30 18:00 30.06398 31.37500 1627 ft 153 kts 45°
2026-04-30 18:00 30.08458 31.40237 1038 ft 153 kts 44°
2026-04-30 18:01 30.09838 31.42061 484 ft 147 kts 46°
2026-04-30 18:02 30.11333 31.44053 369 ft 63 kts 49°
2026-04-30 18:02 30.11812 31.44693 371 ft 21 kts 49°
2026-04-30 18:03 30.12011 31.44736 373 ft 11 kts 301°
2026-04-30 18:04 30.11920 31.44538 373 ft 10 kts 229°
2026-04-30 18:05 30.11679 31.44215 373 ft 13 kts 229°
2026-04-30 18:06 30.11437 31.43893 373 ft 13 kts 229°
2026-04-30 18:07 30.11211 31.43592 373 ft 12 kts 229°
2026-04-30 18:08 30.11286 31.43380 373 ft 15 kts 320°
2026-04-30 18:09 30.11614 31.43053 373 ft 14 kts 320°
2026-04-30 18:10 30.11895 31.42776 373 ft 12 kts 319°
2026-04-30 18:11 30.12161 31.42512 374 ft 13 kts 319°
2026-04-30 18:11 30.12103 31.42268 374 ft 13 kts 229°
2026-04-30 18:12 30.11916 31.42019 374 ft 17 kts 229°
2026-04-30 18:13 30.11760 31.41811 374 ft 17 kts 229°
2026-04-30 18:13 30.11569 31.41558 374 ft 15 kts 229°
2026-04-30 18:14 30.11396 31.41326 374 ft 16 kts 229°
2026-04-30 18:15 30.11188 31.41051 374 ft 14 kts 229°
2026-04-30 18:15 30.11073 31.40818 374 ft 10 kts 305°
2026-04-30 18:16 30.11088 31.40678 374 ft 9 kts 315°
2026-04-30 18:16 30.11194 31.40572 373 ft 10 kts 320°
2026-04-30 18:17 30.11246 31.40520 373 ft 10 kts 319°
2026-04-30 18:17 30.11297 31.40470 373 ft 9 kts 319°
2026-04-30 18:17 30.11394 31.40373 373 ft 9 kts 319°
2026-04-30 18:18 30.11441 31.40327 373 ft 9 kts 319°
2026-04-30 18:18 30.11467 31.40268 373 ft 8 kts 262°
2026-04-30 18:18 30.11434 31.40213 373 ft 8 kts 229°
2026-04-30 18:18 30.11390 31.40175 373 ft 8 kts 194°
2026-04-30 18:19 30.11339 31.40193 373 ft 8 kts 141°
2026-04-30 18:19 30.11306 31.40238 373 ft 7 kts 150°
2026-04-30 18:19 30.11277 31.40238 373 ft 1 kts 190°
2026-04-30 18:19 30.11267 31.40235 373 ft 1 kts 194°
2026-04-30 18:20 30.11256 31.40232 373 ft 3 kts 196°
2026-04-30 18:20 30.11240 31.40226 373 ft 1 kts 196°
2026-04-30 18:20 30.11237 31.40225 373 ft 0 kts 196°
2026-04-30 18:20 30.11236 31.40225 373 ft 0 kts 196°